Find Starlink 38212

NORAD ID: 100267 Int'l Des: 2026-181 Owner: SPXS Country: US Constellation: starlink operational

Current View

Loading 3D Globe...

About Starlink 38212

Starlink 38212 (NORAD 100267) is a starlink constellation satellite launched Aug 8, 2026 by SPXS of US. with a mass of 575.00 kg.

Upcoming Passes

Passes for default location (London). Set your location on the main map for personalized predictions.

Altitude History

Loading altitude history...

Two-Line Element Set

1 A0267U 26181X 26263.63315862 .00209541 00000-0 13690-2 0 9998
2 A0267 97.2861 307.2695 0000903 87.7448 272.3920 15.75232448 7971
Epoch: Sep 20, 2026 • Age: 4 hours

Current Status

Altitude 346.7 km
Apogee / Perigee N/A
Velocity 7.70 km/s
Sub-Earth Point 23.78°N, 152.61°W
Launch Date Aug 8, 2026
Age 0.1 years
Type internet

Technical Details

Classification Payload
Mass 575.00 kg
Dry Mass 530.00 kg
Length 0.30 m
Span 29.00 m
Shape ? Box + pan
Manufacturer SPXS
Bus Type Starlink V2MO
Phase Status In Orbit
Owner/State SPXS/US

Most Searched